Location: Rowland
(34.5359°N, 79.2929°W)
Time: 17:35:12
(UTC+00:00)

SR - Pass Details

Date: 11 October 2022
Orbit: 577 x 874 km, 66.7° (Epoch: 05 December)

Event Time Altitude Azimuth Distance (km) Brightness Sun altitude
Rises 01:39:01 0° 263° (W) 3,451 ? -35.5°
Reaches altitude 10° 01:43:20 10° 292° (WNW) 2,526 ? -36.3°
Maximum altitude 01:45:33 12° 315° (NW) 2,375 ? -36.8°
Drops below altitude 10° 01:47:45 10° 337° (NNW) 2,516 ? -37.2°
Sets 01:52:04 0° 7° (N) 3,423 ? -38.0°
